Weather Roundup
Issued by NWS Chicago, IL

Home | Current Version | Previous Version | Text Only | Print | Product List | Glossary Off
Versions: 1 2 3 4 5 6 7 8 9 10 11 12 13 14 15 16 17 18 19 20 21 22 23 24 25 26 27 28 29 30 31 32 33 34 35 36 37 38 39 40 41 42 43 44 45 46 47 48 49 50

000
NZUS59 KLOT 150310
HRRLOT

CHICAGO AREA WEATHER ROUNDUP
NATIONAL WEATHER SERVICE CHICAGO/ROMEOVILLE IL
1000 PM CDT SUN SEP 14 2014

NOTE: "FAIR" INDICATES FEW OR NO CLOUDS BELOW 12,000 FEET WITH NO
SIGNIFICANT WEATHER AND/OR OBSTRUCTIONS TO VISIBILITY.

* THESE STATIONS ARE NOT UNDER NWS QUALITY CONTROL. THEY ALSO MAY NOT
  REPORT WEATHER SUCH AS PRECIPITATION OR FOG.

ILZ005-006-012>014-019>023-150400-
NORTHEAST ILLINOIS

CITY           SKY/WX    TMP DP  RH WIND       PRES   REMARKS
OHARE          PTCLDY    53  46  77 SW3       30.17S
MIDWAY         PTCLDY    60  45  57 SW3       30.18S
AURORA         CLEAR     49  44  83 CALM      30.18S
LANSING*       CLEAR     51  47  87 CALM      30.19S
JOLIET*        CLEAR     49  46  92 CALM      30.19S
WAUKEGAN       PTCLDY    52  46  80 VRB3      30.17R
DUPAGE AIRPORT CLEAR     50  47  89 CALM      30.17S
WHEELING       CLEAR     54  47  77 CALM      30.20R
KANKAKEE*      CLEAR     49  48  97 CALM      30.19F
MORRIS*        CLEAR     51  49  94 CALM      30.18S
LEWIS AIRPORT* CLEAR     52  45  78 CALM      30.18S
NORTHERLY IS     N/A     60  43  53 S3          N/A
$$

WIZ051-052-058>065-066-070>072-150400-
SOUTHEAST WISCONSIN

CITY           SKY/WX    TMP DP  RH WIND       PRES   REMARKS
MILWAUKEE      MOCLDY    56  46  69 S6        30.16S
KENOSHA*       PTCLDY    53  47  79 S5        30.17S
RACINE*        PTCLDY    53  48  83 SW5       30.18S
BURLINGTON     PTCLDY    47  46  95 SW3       30.17S
WAUKESHA       PTCLDY    52  45  76 CALM      30.16F
WEST BEND      PTCLDY    52  45  76 S6        30.14R
$$

INZ001>003-010>013-019-020-150400-
NORTHWEST INDIANA

CITY           SKY/WX    TMP DP  RH WIND       PRES   REMARKS
GARY*          CLEAR     50  48  93 CALM      30.19S
MICHIGAN CITY* NOT AVBL
RENSSELAER*    NOT AVBL
VALPARAISO     CLEAR     50  47  89 CALM      30.20S
$$

LMZ740>746-150400-
SOUTHERN LAKE MICHIGAN

STATION/POSITION TIME  SKY/WX   TEMP WIND        PRES    VSBY
                                AIR  DIR/SP/G
                 (UTC)          (F)  (DEG/KT/KT) (MB)    (MI)
HARRISON CRIB    0300            62  190/  8/  9   N/A
BURNHAM HARBOR   0300            61  200/  2/  4   N/A
CALUMET HARBOR   0300            59  170/  3/  3 1020.7F
BURNS HARBOR     NOT AVBL
MICHIGAN CITY    0300            58  140/  5/  7   N/A
$$

ABBREVIATIONS USED IN REMARKS
   TC - TEMPERATURE IN CELSIUS
  WCI - WIND CHILL INDEX
   HX - HEAT INDEX
  VSB - VISIBILITY
$$


USA.gov is the U.S. government's official web portal to all federal, state and local government web resources and services.